When you browse on this site, cookies collect data to enhance your experience and personalize the content and advertising you see.
Visit our Privacy Policy to learn more. By continuing to use the site, you agree to this use of cookies and data.
  • In Denmark
  • List of Countries
  • For 7 days
  • Water Temperature
  • Weather Map
  • Weather Widgets
  • user-avatar
    Login

    Hourly Weather Wagrodno

    Today, 16 October, Wednesday

    Time Temperature Precipitation Wind Pressure Humidity
    00:00 +15°C° 0 mm 4 mps 743 mmHg 79%
    01:00 +14°C° 0 mm 4 mps 743 mmHg 81%
    02:00 +14°C° 0 mm 4 mps 743 mmHg 82%
    03:00 +14°C° 0 mm 4 mps 743 mmHg 83%
    04:00 +14°C° 0 mm 4 mps 743 mmHg 84%
    05:00 +14°C° 0 mm 4 mps 744 mmHg 82%
    06:00 +15°C° 0 mm 5 mps 745 mmHg 79%
    07:00 +15°C° 0 mm 6 mps 745 mmHg 77%
    08:00 +15°C° 0 mm 6 mps 746 mmHg 75%
    09:00 +15°C° 0 mm 6 mps 747 mmHg 74%
    10:00 +15°C° 0 mm 6 mps 747 mmHg 72%
    11:00 +15°C° 0 mm 6 mps 748 mmHg 67%
    12:00 +16°C° 0 mm 6 mps 748 mmHg 62%
    13:00 +17°C° 0 mm 6 mps 748 mmHg 57%
    14:00 +16°C° 0 mm 6 mps 748 mmHg 58%
    15:00 +16°C° 0 mm 5 mps 748 mmHg 58%
    16:00 +15°C° 0 mm 5 mps 749 mmHg 59%
    17:00 +14°C° 0 mm 5 mps 749 mmHg 61%
    18:00 +13°C° 0 mm 4 mps 749 mmHg 64%
    19:00 +12°C° 0 mm 4 mps 749 mmHg 66%
    20:00 +12°C° 0 mm 4 mps 749 mmHg 66%
    21:00 +12°C° 0 mm 4 mps 750 mmHg 65%
    22:00 +12°C° 0 mm 4 mps 750 mmHg 65%
    23:00 +13°C° 0 mm 4 mps 750 mmHg 63%

    Tomorrow, 17 October, Thursday

    Time Temperature Precipitation Wind Pressure Humidity
    00:00 +13°C° 0 mm 4 mps 750 mmHg 61%
    01:00 +13°C° 0 mm 4 mps 750 mmHg 59%
    02:00 +13°C° 0 mm 4 mps 750 mmHg 59%
    03:00 +13°C° 0 mm 3 mps 750 mmHg 60%
    04:00 +13°C° 0 mm 3 mps 750 mmHg 60%
    05:00 +12°C° 0 mm 3 mps 750 mmHg 61%
    06:00 +12°C° 0 mm 3 mps 750 mmHg 62%
    07:00 +12°C° 0 mm 3 mps 750 mmHg 63%
    08:00 +14°C° 0 mm 3 mps 750 mmHg 58%
    09:00 +16°C° 0 mm 3 mps 750 mmHg 53%
    10:00 +18°C° 0 mm 3 mps 751 mmHg 48%
    11:00 +19°C° 0 mm 3 mps 751 mmHg 46%
    12:00 +20°C° 0 mm 2 mps 751 mmHg 45%
    13:00 +21°C° 0 mm 2 mps 751 mmHg 43%
    14:00 +20°C° 0 mm 2 mps 750 mmHg 48%
    15:00 +19°C° 0 mm 2 mps 750 mmHg 53%
    16:00 +18°C° 0 mm 2 mps 750 mmHg 59%
    17:00 +18°C° 0 mm 2 mps 750 mmHg 61%
    18:00 +17°C° 0 mm 2 mps 751 mmHg 63%
    19:00 +16°C° 0 mm 1 mps 751 mmHg 66%
    20:00 +15°C° 0 mm 1 mps 751 mmHg 68%
    21:00 +15°C° 0 mm 1 mps 751 mmHg 69%
    22:00 +14°C° 0 mm 1 mps 751 mmHg 71%
    23:00 +14°C° 0 mm 1 mps 751 mmHg 73%

    Day after tomorrow, 18 October, Friday

    Time Temperature Precipitation Wind Pressure Humidity
    00:00 +13°C° 0 mm 1 mps 751 mmHg 74%
    01:00 +13°C° 0 mm 1 mps 751 mmHg 76%
    02:00 +13°C° 0 mm 1 mps 751 mmHg 77%
    03:00 +13°C° 0 mm 1 mps 751 mmHg 77%
    04:00 +13°C° 0 mm 1 mps 751 mmHg 77%
    05:00 +13°C° 0 mm 1 mps 751 mmHg 77%
    06:00 +13°C° 0 mm 1 mps 751 mmHg 77%
    07:00 +13°C° 0 mm 1 mps 751 mmHg 77%
    08:00 +14°C° 0 mm 1 mps 751 mmHg 72%
    09:00 +16°C° 0 mm 1 mps 751 mmHg 66%
    10:00 +19°C° 0 mm 1 mps 751 mmHg 60%
    11:00 +20°C° 0 mm 1 mps 751 mmHg 57%
    12:00 +20°C° 0 mm 2 mps 751 mmHg 54%
    13:00 +21°C° 0 mm 2 mps 750 mmHg 50%
    14:00 +20°C° 0 mm 2 mps 750 mmHg 54%
    15:00 +21°C° 0 mm 1 mps 750 mmHg 57%
    16:00 +20°C° 0 mm 1 mps 750 mmHg 60%
    17:00 +19°C° 0 mm 1 mps 750 mmHg 63%
    18:00 +18°C° 0 mm 1 mps 750 mmHg 65%
    19:00 +16°C° 0 mm 1 mps 750 mmHg 68%
    20:00 +16°C° 0 mm 1 mps 750 mmHg 68%
    21:00 +16°C° 0 mm 1 mps 750 mmHg 69%
    22:00 +16°C° 0 mm 1 mps 750 mmHg 70%
    23:00 +15°C° 0 mm 1 mps 749 mmHg 71%

    19 October, Saturday

    Time Temperature Precipitation Wind Pressure Humidity
    00:00 +15°C° 0 mm 1 mps 749 mmHg 73%
    01:00 +15°C° 0 mm 1 mps 749 mmHg 75%
    02:00 +14°C° 0 mm 1 mps 748 mmHg 78%
    03:00 +14°C° 0 mm 2 mps 748 mmHg 80%
    04:00 +13°C° 0 mm 2 mps 748 mmHg 82%
    05:00 +13°C° 0 mm 2 mps 747 mmHg 82%
    06:00 +13°C° 0 mm 2 mps 747 mmHg 82%
    07:00 +13°C° 0 mm 2 mps 747 mmHg 82%
    08:00 +14°C° 0 mm 2 mps 747 mmHg 76%
    09:00 +16°C° 0 mm 2 mps 746 mmHg 71%
    10:00 +17°C° 0 mm 3 mps 746 mmHg 66%
    11:00 +18°C° 0 mm 3 mps 746 mmHg 64%
    12:00 +18°C° 0 mm 3 mps 746 mmHg 62%
    13:00 +19°C° 0 mm 3 mps 745 mmHg 59%
    14:00 +19°C° 0 mm 3 mps 745 mmHg 62%
    15:00 +18°C° 0 mm 2 mps 745 mmHg 64%
    16:00 +18°C° 0 mm 2 mps 745 mmHg 66%
    17:00 +17°C° 0 mm 2 mps 745 mmHg 71%
    18:00 +15°C° 0 mm 2 mps 745 mmHg 75%
    19:00 +14°C° 0 mm 2 mps 745 mmHg 80%
    20:00 +14°C° 0 mm 2 mps 745 mmHg 82%
    21:00 +13°C° 0 mm 1 mps 745 mmHg 83%
    22:00 +13°C° 0 mm 1 mps 745 mmHg 85%
    23:00 +13°C° 0 mm 1 mps 746 mmHg 86%

    20 October, Sunday

    Time Temperature Precipitation Wind Pressure Humidity
    00:00 +12°C° 0 mm 1 mps 746 mmHg 86%
    01:00 +12°C° 0 mm 1 mps 746 mmHg 87%
    02:00 +12°C° 0 mm 1 mps 746 mmHg 87%
    03:00 +12°C° 0 mm 1 mps 746 mmHg 86%
    04:00 +12°C° 0 mm 1 mps 747 mmHg 86%
    05:00 +12°C° 0.1 mm 1 mps 747 mmHg 87%
    06:00 +12°C° 0.1 mm 2 mps 747 mmHg 87%
    07:00 +13°C° 0.1 mm 2 mps 748 mmHg 88%
    08:00 +13°C° 0.5 mm 2 mps 748 mmHg 89%
    09:00 +13°C° 0.5 mm 1 mps 749 mmHg 90%
    10:00 +13°C° 0.5 mm 1 mps 749 mmHg 91%
    11:00 +14°C° 0 mm 1 mps 749 mmHg 86%
    12:00 +15°C° 0 mm 1 mps 750 mmHg 80%
    13:00 +16°C° 0 mm 1 mps 750 mmHg 75%
    14:00 +16°C° 0 mm 1 mps 750 mmHg 76%
    15:00 +15°C° 0 mm 1 mps 750 mmHg 77%
    16:00 +15°C° 0 mm 1 mps 750 mmHg 77%
    17:00 +14°C° 0 mm 1 mps 750 mmHg 81%
    18:00 +13°C° 0 mm 1 mps 751 mmHg 84%
    19:00 +13°C° 0 mm 1 mps 751 mmHg 87%
    20:00 +13°C° 0 mm 1 mps 751 mmHg 87%
    21:00 +13°C° 0 mm 1 mps 751 mmHg 87%
    22:00 +12°C° 0 mm 1 mps 751 mmHg 86%
    23:00 +13°C° 0 mm 1 mps 751 mmHg 87%

    21 October, Monday

    Time Temperature Precipitation Wind Pressure Humidity
    00:00 +13°C° 0 mm 1 mps 751 mmHg 87%
    01:00 +13°C° 0 mm 1 mps 751 mmHg 87%
    02:00 +13°C° 0.2 mm 1 mps 751 mmHg 89%
    03:00 +12°C° 0.2 mm 1 mps 751 mmHg 91%
    04:00 +12°C° 0.2 mm 1 mps 750 mmHg 93%
    05:00 +12°C° 0.1 mm 2 mps 750 mmHg 94%
    06:00 +12°C° 0.1 mm 2 mps 750 mmHg 94%
    07:00 +12°C° 0.1 mm 2 mps 750 mmHg 95%
    08:00 +13°C° 0 mm 2 mps 750 mmHg 94%
    09:00 +13°C° 0 mm 2 mps 750 mmHg 93%
    10:00 +13°C° 0 mm 2 mps 750 mmHg 93%
    11:00 +13°C° 0 mm 2 mps 750 mmHg 92%
    12:00 +13°C° 0 mm 2 mps 751 mmHg 92%
    13:00 +14°C° 0 mm 2 mps 751 mmHg 92%
    14:00 +13°C° 0.1 mm 2 mps 751 mmHg 93%
    15:00 +13°C° 0.1 mm 2 mps 751 mmHg 93%
    16:00 +13°C° 0.1 mm 2 mps 751 mmHg 94%
    17:00 +13°C° 0 mm 2 mps 751 mmHg 94%
    18:00 +12°C° 0 mm 3 mps 751 mmHg 95%
    19:00 +12°C° 0 mm 3 mps 752 mmHg 95%
    20:00 +13°C° 0 mm 2 mps 752 mmHg 95%
    21:00 +13°C° 0 mm 2 mps 752 mmHg 95%
    22:00 +13°C° 0 mm 2 mps 752 mmHg 95%
    23:00 +13°C° 0 mm 2 mps 752 mmHg 95%
    Show more